[[{"header":{"parameterUnit":"m.s-1","parameterCategory":1,"la1":30.2991,"la2":30.254,"lo1":-89.0895,"lo2":-89.0444,"dy":0.0017,"dx":0.0017,"nx":28,"ny":28,"refTime":"2026-03-04T09:00:00:Z","depth":0,"parameterNumber":2,"parameterNumberName":"U-component_of_WINDS"},"data":[0,0,0,0,0,0,0,0,0,0,0,0,0,0,0,0,0,0,0,0,0,0,0,0,0,0,0,0,0,0,0,0,0,0,0,0,0,0,0,0,0,0,0,0,0,0,0,0,0,0,0,0,0,0,0,0,0,0,-3.0492,-3.0493,0,-3.057,-3.0571,-3.0572,-3.0567,-3.0566,-3.0565,-3.0564,-3.0645,-3.0648,-3.0651,0,0,0,0,0,0,0,0,0,0,0,0,0,-3.0341,-3.0344,-3.0492,-3.0493,-3.0494,-3.057,-3.0571,-3.0572,-3.0567,-3.0566,-3.0565,-3.0563,-3.0644,-3.0647,-3.0651,0,0,0,0,0,0,0,0,0,0,0,0,0,-3.0412,-3.0345,-3.0492,-3.0501,-3.0503,-3.057,-3.0571,-3.0573,-3.0568,-3.0566,-3.0564,-3.0563,-3.0642,-3.0647,-3.0652,-3.0716,0,0,-3.0667,-3.0669,0,0,0,0,0,0,0,0,-3.0408,-3.0417,-3.0499,-3.05,-3.0502,-3.0557,-3.0548,-3.0621,-3.0568,-3.0543,-3.0564,-3.0562,-3.0617,-3.0624,-3.0642,-3.072,-3.0723,-3.0667,-3.067,-3.0672,-3.0673,0,0,0,0,0,0,0,-3.0403,-3.0414,-3.0523,-3.05,-3.0502,-3.0502,-3.051,-3.0561,-3.0589,-3.0545,-3.0545,-3.0554,-3.0618,-3.0638,-3.0644,-3.0724,-3.0667,-3.0671,-3.0674,-3.0676,-3.0859,-3.0861,0,0,0,0,0,0,-3.0396,-3.041,-3.0521,-3.0526,-3.045,-3.0506,-3.0515,-3.0541,-3.0588,-3.0594,-3.0556,-3.0554,-3.063,-3.0638,-3.0647,-3.0725,-3.0672,-3.0676,-3.0679,-3.0857,-3.0859,-3.0862,0,0,0,0,0,0,-3.0393,-3.0406,-3.0518,-3.0468,-3.0482,-3.051,-3.054,-3.0544,-3.0564,-3.0596,-3.0601,-3.0571,-3.0629,-3.064,-3.0699,-3.0727,-3.0679,-3.0683,-3.0855,-3.0858,-3.086,-3.0881,0,0,0,0,0,0,-3.0388,-3.0405,-3.0429,-3.0468,-3.0485,-3.0567,-3.0542,-3.0547,-3.0572,-3.057,-3.0611,-3.0617,-3.0629,-3.0692,-3.0704,-3.0733,-3.0687,-3.0852,-3.0856,-3.086,-3.0878,-3.0884,-3.089,0,0,0,0,0,-3.0383,-3.0431,-3.043,-3.0443,-3.0515,-3.0569,-3.0578,-3.0591,-3.0574,-3.0599,-3.062,-3.0615,-3.0723,-3.0698,-3.0711,-3.0743,-3.085,-3.0855,-3.0859,-3.0875,-3.0883,-3.0889,0,0,0,0,0,0,-3.0394,-3.0436,-3.0435,-3.0498,-3.053,-3.0568,-3.0599,-3.0599,-3.0636,-3.0633,-3.0648,-3.0657,-3.0716,-3.0736,-3.0707,-3.0808,-3.0785,-3.0792,-3.0792,-3.08,-3.0805,-3.0799,-3.0691,0,0,0,0,0,-3.0404,-3.0443,-3.0479,-3.0531,-3.0547,-3.057,-3.0594,-3.0602,-3.0635,-3.0649,-3.0674,-3.0708,-3.0749,-3.0776,-3.0816,-3.0881,-3.089,-3.091,-3.0916,-3.0921,-3.0926,-3.0963,-3.0972,-3.0876,-3.0876,-3.0876,0,0,-3.0424,-3.0452,-3.0476,-3.0534,-3.0559,-3.06,-3.0582,-3.0626,-3.0657,-3.0656,-3.0712,-3.0732,-3.0771,-3.0833,-3.0862,-3.0851,-3.0955,-3.0926,-3.093,-3.0933,-3.0968,-3.0977,-3.0985,-3.0879,-3.0879,-3.0878,0,0,-3.0481,-3.0507,-3.0553,-3.0579,-3.0619,-3.0634,-3.0646,-3.0685,-3.0698,-3.0755,-3.0755,-3.0793,-3.0864,-3.0891,-3.0914,-3.0985,-3.0982,-3.0998,-3.1028,-3.1064,-3.1071,-3.1078,-3.1102,-3.1111,-3.1004,-3.1004,-3.1004,0,-3.0501,-3.0563,-3.0577,-3.0621,-3.0647,-3.0648,-3.0695,-3.0721,-3.0771,-3.0789,-3.0776,-3.0866,-3.0892,-3.0961,-3.0978,-3.0998,-3.1011,-3.0992,-3.1069,-3.1076,-3.1082,-3.1106,-3.1115,-3.1006,-3.1005,-3.1005,-3.1005,0,-3.0586,-3.0629,-3.0661,-3.071,-3.0739,-3.0785,-3.0806,-3.0835,-3.084,-3.0857,-3.0916,-3.0948,-3.0994,-3.1012,-3.1018,-3.1082,-3.1074,-3.1066,-3.1043,-3.1093,-3.1115,-3.1124,-3.1008,-3.1007,-3.1007,-3.1006,0,0,-3.065,-3.0706,-3.0718,-3.074,-3.0785,-3.0819,-3.0865,-3.0911,-3.0935,-3.0971,-3.101,-3.1071,-3.1063,-3.109,-3.1099,-3.1131,-3.1184,-3.1118,-3.1119,-3.1128,-3.1257,-3.1262,-3.1272,-3.1184,-3.1186,-3.1187,-3.1254,0,-3.0711,-3.0792,-3.0807,-3.0878,-3.0918,-3.0922,-3.0962,-3.0995,-3.1013,-3.105,-3.1071,-3.1114,-3.1101,-3.1117,-3.1148,-3.1171,-3.121,-3.1167,-3.122,-3.1222,-3.1208,-3.1284,-3.1289,-3.135,-3.1262,-3.1264,-3.1265,0,-3.0792,-3.083,-3.0905,-3.0945,-3.0962,-3.0998,-3.1042,-3.1078,-3.1115,-3.1126,-3.1157,-3.1163,-3.1212,-3.1189,-3.1258,-3.1228,-3.1251,-3.1266,-3.1269,-3.1272,-3.1245,-3.1289,-3.137,-3.1379,-3.1279,-3.1278,-3.1277,0,-3.083,-3.09,-3.0954,-3.0973,-3.1021,-3.1047,-3.1068,-3.1104,-3.113,-3.1169,-3.1187,-3.1231,-3.1255,-3.1289,-3.1307,-3.1289,-3.1375,-3.1353,-3.1385,-3.1385,-3.1401,-3.1399,-3.1486,-3.1419,-3.1419,-3.1419,-3.1419,0,-3.0895,-3.0941,-3.0971,-3.1004,-3.1056,-3.1073,-3.1124,-3.1146,-3.1178,-3.1216,-3.1222,-3.1258,-3.1281,-3.132,-3.1335,-3.1389,-3.1401,-3.1411,-3.1414,-3.1409,-3.1408,-3.1423,-3.1419,-3.1421,-3.1421,-3.142,-3.142,0,-3.0945,-3.0967,-3.1026,-3.1068,-3.1079,-3.1115,-3.1151,-3.1184,-3.1203,-3.1251,-3.1264,-3.1294,-3.1341,-3.1363,-3.1421,-3.1431,-3.1492,-3.1494,-3.1479,-3.148,-3.1511,-3.1507,-3.1609,-3.1623,-3.1548,-3.1549,-3.155,0,-3.0984,-3.1019,-3.1065,-3.1091,-3.1113,-3.1154,-3.1182,-3.1201,-3.123,-3.1276,-3.1303,-3.135,-3.1388,-3.1463,-3.1491,-3.1536,-3.1537,-3.157,-3.1543,-3.1538,-3.1536,-3.1533,-3.1536,-3.1573,-3.1574,-3.1575,-3.1575,0,-3.1051,-3.1061,-3.11,-3.1144,-3.1176,-3.1212,-3.1246,-3.1267,-3.1293,-3.1325,-3.1372,-3.1402,-3.1462,-3.1508,-3.1555,-3.1578,-3.1581,-3.1584,-3.1593,-3.1588,-3.1577,-3.1582,-3.149,-3.1581,-3.158,-3.158,-3.1579,-3.1579,-3.1096,-3.1128,-3.1165,-3.1208,-3.1237,-3.127,-3.1302,-3.1326,-3.1366,-3.1416,-3.1426,-3.1476,-3.1514,-3.1578,-3.1603,-3.1643,-3.1636,-3.165,-3.1653,-3.1656,-3.1657,-3.1573,-3.1652,-3.1652,-3.1652,-3.1652,-3.1652,0,-3.1163,-3.1187,-3.1227,-3.1276,-3.131,-3.1311,-3.135,-3.1379,-3.1423,-3.1458,-3.1496,-3.1552,-3.1597,-3.163,-3.1676,-3.1703,-3.1705,-3.1714,-3.1711,-3.1717,-3.1661,-3.1648,-3.1711,-3.1711,-3.1711,-3.1711,-3.1711,-3.1711,-3.1201,-3.1254,-3.1269,-3.1337,-3.1361,-3.141,-3.1433,-3.1463,-3.1491,-3.1553,-3.1591,-3.1611,-3.1646,-3.1695,-3.1738,-3.1746,-3.1763,-3.1772,-3.178,-3.1727,-3.172,-3.1714,-3.1702,-3.1775,-3.1775,-3.1831,-3.1832,-3.1832]},{"header":{"parameterUnit":"m.s-1","parameterCategory":1,"la1":30.2991,"la2":30.254,"lo1":-89.0895,"lo2":-89.0444,"dy":0.0017,"dx":0.0017,"nx":28,"ny":28,"refTime":"2026-03-04T09:00:00:Z","depth":0,"parameterNumber":3,"parameterNumberName":"V-component_of_WINDS"},"data":[0,0,0,0,0,0,0,0,0,0,0,0,0,0,0,0,0,0,0,0,0,0,0,0,0,0,0,0,0,0,0,0,0,0,0,0,0,0,0,0,0,0,0,0,0,0,0,0,0,0,0,0,0,0,0,0,0,0,1.6016,1.6017,0,1.6085,1.6086,1.6086,1.6122,1.6122,1.6122,1.6122,1.6192,1.6194,1.6196,0,0,0,0,0,0,0,0,0,0,0,0,0,1.5917,1.5919,1.6016,1.6017,1.6018,1.6085,1.6086,1.6087,1.6122,1.6122,1.6122,1.6122,1.6192,1.6194,1.6196,0,0,0,0,0,0,0,0,0,0,0,0,0,1.597,1.5919,1.6016,1.6044,1.6047,1.6084,1.6086,1.6087,1.6122,1.6122,1.6122,1.6122,1.6191,1.6194,1.6196,1.6212,0,0,1.6205,1.6206,0,0,0,0,0,0,0,0,1.5967,1.5974,1.6039,1.6042,1.6045,1.6095,1.6077,1.6129,1.6122,1.6093,1.6122,1.6122,1.616,1.6165,1.6178,1.6215,1.6218,1.6205,1.6207,1.6208,1.6208,0,0,0,0,0,0,0,1.5964,1.5971,1.6043,1.604,1.6044,1.6053,1.6061,1.6087,1.6125,1.6096,1.6099,1.6106,1.6162,1.6175,1.618,1.6219,1.6205,1.6207,1.6209,1.621,1.6276,1.6276,0,0,0,0,0,0,1.5955,1.5968,1.6041,1.6045,1.6006,1.6055,1.6063,1.6079,1.6125,1.6132,1.6106,1.6108,1.617,1.6176,1.6182,1.6205,1.6208,1.621,1.6212,1.6276,1.6276,1.6276,0,0,0,0,0,0,1.5953,1.5962,1.6038,1.6007,1.6018,1.6056,1.6074,1.608,1.6094,1.6133,1.614,1.6113,1.6171,1.6178,1.6205,1.6208,1.6211,1.6214,1.6275,1.6276,1.6276,1.625,0,0,0,0,0,0,1.595,1.596,1.5966,1.6007,1.6019,1.6059,1.6074,1.6082,1.6098,1.6101,1.6141,1.6148,1.6171,1.6201,1.6208,1.6212,1.6216,1.6275,1.6275,1.6276,1.6251,1.625,1.6248,0,0,0,0,0,1.5946,1.5955,1.5966,1.5975,1.6027,1.6059,1.6066,1.6093,1.6098,1.6105,1.6131,1.6146,1.6207,1.6203,1.6211,1.6216,1.6275,1.6275,1.6276,1.6252,1.625,1.6248,0,0,0,0,0,0,1.5913,1.5961,1.5974,1.5996,1.6023,1.6065,1.6074,1.609,1.6116,1.6117,1.615,1.6159,1.6183,1.6202,1.6197,1.6236,1.6243,1.6245,1.6222,1.622,1.6219,1.6214,1.6218,0,0,0,0,0,1.5908,1.593,1.5971,1.5987,1.6,1.6035,1.6049,1.6068,1.6098,1.6109,1.6137,1.6165,1.6191,1.6206,1.6232,1.6254,1.6265,1.6262,1.6261,1.626,1.6261,1.6277,1.6277,1.6277,1.6277,1.6277,0,0,1.5898,1.5928,1.5939,1.5981,1.6004,1.6027,1.6044,1.6066,1.6084,1.6112,1.614,1.6161,1.6195,1.622,1.6232,1.6237,1.6264,1.626,1.6259,1.6261,1.6277,1.6277,1.6277,1.6277,1.6277,1.6277,0,0,1.5892,1.5916,1.5933,1.5957,1.5992,1.6016,1.602,1.606,1.6075,1.6103,1.6126,1.6148,1.619,1.6214,1.6232,1.6238,1.6254,1.6246,1.6239,1.6254,1.6254,1.6254,1.6258,1.6259,1.6247,1.6247,1.6247,0,1.5876,1.591,1.594,1.5962,1.598,1.6009,1.6027,1.6048,1.609,1.6103,1.6108,1.6164,1.6188,1.6221,1.6223,1.6235,1.6243,1.6241,1.6251,1.6252,1.6253,1.6257,1.6258,1.6246,1.6246,1.6246,1.6246,0,1.5889,1.5913,1.5922,1.5963,1.5983,1.6003,1.6036,1.6053,1.6071,1.6094,1.6124,1.6155,1.6188,1.6197,1.6214,1.6233,1.6235,1.6245,1.6253,1.6251,1.6255,1.6257,1.6244,1.6244,1.6245,1.6245,0,0,1.5862,1.5921,1.5924,1.5944,1.5987,1.6006,1.6028,1.6062,1.6076,1.6105,1.6125,1.6162,1.6173,1.6193,1.6213,1.6226,1.6232,1.6235,1.6237,1.6235,1.6257,1.625,1.6251,1.6243,1.6244,1.6244,1.6255,0,1.5863,1.5904,1.5932,1.5963,1.5986,1.6015,1.6035,1.6064,1.6087,1.6111,1.6136,1.6163,1.6174,1.6186,1.6201,1.6228,1.6237,1.6228,1.6264,1.6265,1.6255,1.6253,1.6245,1.6253,1.6256,1.6257,1.6257,0,1.5869,1.5898,1.593,1.5973,1.5984,1.6001,1.6036,1.6058,1.6092,1.6108,1.6132,1.6153,1.618,1.6186,1.6223,1.6217,1.6233,1.6249,1.625,1.6255,1.6261,1.6259,1.6256,1.6258,1.626,1.626,1.6259,0,1.5848,1.5895,1.5921,1.5937,1.5987,1.5999,1.602,1.6055,1.6074,1.6104,1.6118,1.615,1.6168,1.6194,1.6224,1.6225,1.626,1.6267,1.6275,1.6274,1.628,1.628,1.6282,1.629,1.629,1.629,1.629,0,1.5846,1.5865,1.5913,1.5929,1.5952,1.5986,1.6008,1.6032,1.6063,1.6085,1.6112,1.6133,1.6171,1.6197,1.6221,1.625,1.6257,1.6272,1.6278,1.627,1.6269,1.6282,1.6282,1.629,1.629,1.629,1.629,0,1.5826,1.5858,1.5889,1.5935,1.5947,1.5962,1.6002,1.602,1.6045,1.6073,1.6082,1.6122,1.6154,1.6187,1.623,1.6246,1.6275,1.6283,1.6263,1.6267,1.6273,1.6272,1.6284,1.6288,1.6292,1.6292,1.6292,0,1.5823,1.5839,1.5887,1.5904,1.5925,1.5952,1.5972,1.6007,1.6027,1.6069,1.6082,1.6116,1.6145,1.6195,1.6229,1.6263,1.6272,1.6274,1.6277,1.627,1.6274,1.6273,1.6276,1.6273,1.6273,1.6273,1.6272,0,1.5814,1.5831,1.5859,1.5894,1.5917,1.5946,1.5976,1.5989,1.6029,1.6051,1.6084,1.6107,1.6152,1.6187,1.6225,1.6248,1.6268,1.6271,1.6275,1.6267,1.6256,1.6264,1.6261,1.6271,1.6271,1.6271,1.6271,1.6271,1.5804,1.582,1.5857,1.5889,1.5915,1.5943,1.5963,1.5992,1.602,1.606,1.6079,1.6113,1.615,1.6203,1.6226,1.6254,1.626,1.6264,1.6266,1.6267,1.6266,1.6251,1.6261,1.6261,1.6261,1.6262,1.6262,0,1.5798,1.5824,1.5853,1.5895,1.592,1.5937,1.5971,1.5992,1.6021,1.6054,1.6083,1.6123,1.6157,1.6194,1.6231,1.6246,1.6256,1.6255,1.6254,1.626,1.6258,1.6252,1.6246,1.6246,1.6246,1.6246,1.6246,1.6246,1.5798,1.5828,1.5849,1.5892,1.5918,1.5952,1.5971,1.5998,1.6024,1.6068,1.6097,1.6121,1.6156,1.6196,1.6229,1.6239,1.6252,1.6248,1.6261,1.6259,1.626,1.6261,1.6255,1.625,1.625,1.6261,1.6261,1.6261]}]]